Simultaneous Nadir Overpasses (SNOs) Predictions

Prediction of SNOs between GOES-16 and METOP-C Satellite Orbit:

Table of predicted SNOs for the next 14.0 days since TLE Epoch: 9/25/2022
Index Date Time (GOES-16) GOES-16 Lat,Lon METOP-C Lat,Lon Distance(km) Time Diff (sec)
1 09/26/2022 02:18:44 0.06, -75.20 0.79, -71.95 370.48 80
2 09/27/2022 14:34:53 -0.06, -75.22 0.22, -76.50 145.84 80
3 09/28/2022 14:16:53 -0.06, -75.23 -0.89, -71.51 424.40 80
4 09/30/2022 02:33:12 0.06, -75.23 -0.16, -76.10 100.02 80
5 10/01/2022 02:15:12 0.05, -75.23 0.95, -71.10 470.26 80
6 10/02/2022 14:31:21 -0.05, -75.26 0.05, -75.66 45.87 80
7 10/05/2022 02:29:40 0.05, -75.27 0.02, -75.26 3.26 80
8 10/07/2022 14:30:28 -0.04, -75.32 -0.14, -74.82 56.84 80
